Skip Page Navigation
NASA JPL Caltech
NASA Logo - Jet Propulsion Laboratory + View the NASA Portal
+ Center for Near-Earth Object Studies
JPL Home Earth Solar System Stars & Galaxies Technology
JPL Solar System Dynamics
BODIES ORBITS EPHEMERIDES TOOLS PHYSICAL DATA DISCOVERY FAQ SITE MAP
IMPORTANT: The SSD Announcement email list is now available. Major changes are coming in the near future, including possible hostname and/or URL changes. To be notified of such changes, subscribe to this email list.

Please visit this page for more details.


JPL Small-Body Database Browser
Search: [ help ]  
48688 (1996 FM2)
Classification: Main-belt Asteroid          SPK-ID: 2048688
Ephemeris | Orbit Diagram | Orbital Elements | Mission Design | Physical Parameters | Discovery Circumstances | Close-Approach Data ]

[ show orbit diagram ]
Orbital Elements at Epoch 2458600.5 (2019-Apr-27.0) TDB
Reference: JPL 19 (heliocentric ecliptic J2000)
 Element Value Uncertainty (1-sigma)   Units 
e .1369343355191971 3.7424e-08  
a 2.481718355084951 1.0956e-08 au
q 2.141885901185598 9.2911e-08 au
i 3.436259116550732 4.4707e-06 deg
node 165.263648999363 7.7728e-05 deg
peri 354.9279687351504 7.9997e-05 deg
M 332.0004369039333 2.145e-05 deg
tp 2458711.564667300741
(2019-Aug-16.06466730)
8.5447e-05 TDB
period 1427.996575913837
3.91
9.4561e-06
2.589e-08
d
yr
n .2521014448298803 1.6694e-09 deg/d
Q 2.821550808984303 1.2456e-08 au
  Orbit Determination Parameters
   # obs. used (total)      1034  
   data-arc span      8883 days (24.32 yr)  
   first obs. used      1994-10-09  
   last obs. used      2019-02-03  
   planetary ephem.      DE431  
   SB-pert. ephem.      SB431-N16  
   condition code      0  
   norm. resid. RMS      .53507  
   source      ORB  
   producer      Otto Matic  
   solution date      2019-Jul-13 02:47:30  

Additional Information
 Earth MOID = 1.15099 au 
 Jupiter MOID = 2.15935 au 
 T_jup = 3.462 
[ show covariance matrix ]

Ephemeris | Orbit Diagram | Orbital Elements | Mission Design | Physical Parameters | Discovery Circumstances | Close-Approach Data ]

Physical Parameter Table
Parameter Symbol Value Units Sigma Reference Notes
absolute magnitude H 15.3   n/a MPO365820  

48688 (1996 FM2)          Discovered 1996-Mar-17 by NEAT at Haleakala
Reference: 20021120/Numbers.arcLast Updated: 2004-04-19

[ show close-approach data ]
Alternate Designations
 1996 FM2 = 2000 EW7 
Ephemeris | Orbit Diagram | Orbital Elements | Mission Design | Physical Parameters | Discovery Circumstances | Close-Approach Data ]
ABOUT SSD CREDITS/AWARDS PRIVACY/COPYRIGHT GLOSSARY LINKS
FirstGov
(server date/time)  
NASA Home Page
Site Manager:   Ryan S. Park
Webmaster  Alan B. Chamberlin